| time (UTC) | temp C | wind direction | speed KPH | gust KPH | rain 1hr cm | rain 24hr cm | rain mn cm | humidity % | barometer mb |
| 20260506091602 | 9 | 140 | 0.0 | 8.0 | 0.00 | 0.00 | 0.00 | 72 | 1054.9 |
| 20260506081602 | 9 | 22 | 4.8 | 8.0 | 0.00 | 0.00 | 0.00 | 70 | 1053.8 |
| 20260506080602 | 9 | 306 | 4.8 | 9.7 | 0.00 | 0.00 | 0.00 | 70 | 1053.8 |
| 20260506072602 | 9 | 48 | 4.8 | 14.5 | 0.00 | 0.00 | 0.00 | 69 | 1053.2 |
| 20260506061602 | 9 | 302 | 6.4 | 14.5 | 0.00 | 0.00 | 0.00 | 68 | 1053.5 |
| 20260506042102 | 9 | 36 | 11.3 | 17.7 | 0.00 | 0.00 | 0.00 | 69 | 1053.2 |
| 20260506041102 | 9 | 42 | 3.2 | 12.9 | 0.00 | 0.00 | 0.00 | 70 | 1053.2 |
| 20260506035602 | 9 | 86 | 6.4 | 16.1 | 0.00 | 0.00 | 0.00 | 72 | 1053.2 |
| 20260506034102 | 9 | 76 | 6.4 | 14.5 | 0.00 | 0.00 | 0.00 | 74 | 1052.8 |
| 20260506032602 | 9 | 43 | 8.0 | 11.3 | 0.00 | 0.00 | 0.00 | 77 | 1052.2 |
| 20260506031103 | 9 | 76 | 4.8 | 17.7 | 0.00 | 0.00 | 0.00 | 76 | 1052.2 |
| 20260506025602 | 9 | 357 | 9.7 | 14.5 | 0.00 | 0.00 | 0.00 | 77 | 1052.2 |
| 20260506024102 | 9 | 282 | 3.2 | 11.3 | 0.00 | 0.00 | 0.00 | 77 | 1052.5 |
| 20260506021602 | 9 | 20 | 4.8 | 9.7 | 0.00 | 0.00 | 0.00 | 79 | 1052.2 |
| 20260506014603 | 10 | 70 | 4.8 | 12.9 | 0.00 | 0.00 | 0.00 | 78 | 1051.8 |
| 20260506013102 | 10 | 103 | 6.4 | 11.3 | 0.00 | 0.00 | 0.00 | 77 | 1051.5 |
| 20260506010602 | 10 | 170 | 1.6 | 9.7 | 0.00 | 0.00 | 0.00 | 76 | 1051.1 |
| 20260506005103 | 10 | 211 | 1.6 | 8.0 | 0.00 | 0.00 | 0.00 | 76 | 1050.5 |
| 20260506003602 | 10 | 46 | 11.3 | 11.3 | 0.00 | 0.00 | 0.00 | 75 | 1050.5 |
| 20260506002102 | 10 | 70 | 4.8 | 12.9 | 0.00 | 0.00 | 0.00 | 74 | 1050.1 |
| 20260506000602 | 10 | 103 | 6.4 | 12.9 | 0.00 | 0.00 | 0.00 | 73 | 1050.1 |
| 20260505235102 | 11 | 70 | 8.0 | 11.3 | 0.00 | 0.00 | 0.00 | 72 | 1049.8 |
| 20260505234102 | 11 | 5 | 8.0 | 16.1 | 0.00 | 0.00 | 0.00 | 70 | 1050.1 |
| 20260505232602 | 11 | 270 | 3.2 | 16.1 | 0.00 | 0.00 | 0.00 | 70 | 1050.5 |
| 20260505231102 | 11 | 76 | 9.7 | 9.7 | 0.00 | 0.00 | 0.00 | 70 | 1050.1 |
| 20260505225602 | 11 | 345 | 4.8 | 11.3 | 0.00 | 0.00 | 0.00 | 69 | 1050.1 |
| 20260505223102 | 11 | 17 | 9.7 | 16.1 | 0.00 | 0.00 | 0.00 | 70 | 1049.8 |
| 20260505214602 | 12 | 89 | 12.9 | 12.9 | 0.00 | 0.00 | 0.00 | 69 | 1048.8 |
| 20260505213102 | 12 | 341 | 8.0 | 19.3 | 0.00 | 0.00 | 0.00 | 68 | 1048.8 |
| 20260505212101 | 12 | 49 | 6.4 | 14.5 | 0.00 | 0.00 | 0.00 | 67 | 1048.8 |
| 20260505210602 | 12 | 77 | 8.0 | 14.5 | 0.00 | 0.00 | 0.00 | 68 | 1048.4 |
| 20260505203603 | 12 | 346 | 9.7 | 9.7 | 0.00 | 0.00 | 0.00 | 68 | 1048.8 |
| 20260505202603 | 12 | 18 | 4.8 | 14.5 | 0.00 | 0.00 | 0.00 | 69 | 1048.8 |
| 20260505201102 | 12 | 178 | 12.9 | 12.9 | 0.00 | 0.00 | 0.00 | 69 | 1048.1 |
| 20260505195603 | 12 | 87 | 3.2 | 11.3 | 0.00 | 0.00 | 0.00 | 71 | 1048.1 |
| 20260505194102 | 12 | 73 | 3.2 | 12.9 | 0.00 | 0.00 | 0.00 | 72 | 1048.4 |
| 20260505192603 | 12 | 107 | 6.4 | 12.9 | 0.00 | 0.00 | 0.00 | 74 | 1048.4 |
| 20260505185602 | 13 | 88 | 4.8 | 14.5 | 0.00 | 0.00 | 0.00 | 74 | 1048.1 |
| 20260505184102 | 13 | 16 | 9.7 | 16.1 | 0.00 | 0.00 | 0.00 | 73 | 1047.7 |
| 20260505183102 | 13 | 344 | 6.4 | 9.7 | 0.00 | 0.00 | 0.00 | 73 | 1047.7 |
| 20260505181602 | 14 | 97 | 9.7 | 12.9 | 0.00 | 0.00 | 0.00 | 72 | 1047.4 |
| 20260505180103 | 13 | 64 | 3.2 | 9.7 | 0.00 | 0.00 | 0.00 | 73 | 1047.4 |
| 20260505174602 | 13 | 115 | 3.2 | 11.3 | 0.00 | 0.00 | 0.00 | 75 | 1047.1 |
| 20260505173102 | 13 | 118 | 3.2 | 9.7 | 0.00 | 0.00 | 0.00 | 76 | 1047.1 |
| 20260505171602 | 13 | 76 | 11.3 | 11.3 | 0.00 | 0.00 | 0.00 | 76 | 1046.4 |
| 20260505170104 | 13 | 356 | 6.4 | 12.9 | 0.00 | 0.00 | 0.00 | 77 | 1046.4 |
| 20260505165102 | 13 | 36 | 3.2 | 14.5 | 0.00 | 0.00 | 0.00 | 76 | 1046.4 |
| 20260505163603 | 14 | 344 | 6.4 | 11.3 | 0.00 | 0.00 | 0.00 | 77 | 1045.7 |
| 20260505162102 | 14 | 1 | 4.8 | 12.9 | 0.00 | 0.00 | 0.00 | 78 | 1045.4 |
| 20260505160602 | 15 | 308 | 4.8 | 14.5 | 0.00 | 0.00 | 0.00 | 78 | 1044.7 |
| 20260505152103 | 16 | 28 | 16.1 | 16.1 | 0.00 | 0.00 | 0.00 | 77 | 1043.3 |
| 20260505150603 | 19 | 3 | 8.0 | 11.3 | 0.00 | 0.00 | 0.00 | 74 | 1043.0 |
| 20260505140603 | 20 | 109 | 9.7 | 17.7 | 0.00 | 0.00 | 0.00 | 81 | 1041.7 |
| 20260505123603 | 20 | 81 | 3.2 | 4.8 | 0.00 | 0.00 | 0.00 | 78 | 1041.3 |
| 20260505120603 | 20 | 130 | 0.0 | 0.0 | 0.00 | 0.00 | 0.00 | 76 | 1040.6 |
| 20260505115102 | 21 | 155 | 0.0 | 0.0 | 0.00 | 0.00 | 0.00 | 73 | 1040.6 |
| 20260505113602 | 21 | 100 | 0.0 | 1.6 | 0.00 | 0.00 | 0.00 | 72 | 1040.0 |
| 20260505112102 | 21 | 168 | 0.0 | 6.4 | 0.00 | 0.00 | 0.00 | 71 | 1039.3 |
| 20260505110602 | 21 | 171 | 1.6 | 6.4 | 0.00 | 0.00 | 0.00 | 70 | 1039.3 |
| 20260505101102 | 22 | 135 | 17.7 | 20.9 | 0.00 | 0.00 | 0.00 | 70 | 1038.6 |
| 20260505095602 | 22 | 198 | 19.3 | 29.0 | 0.00 | 0.00 | 0.00 | 70 | 1038.3 |
| 20260505094102 | 22 | 170 | 14.5 | 24.1 | 0.00 | 0.00 | 0.00 | 70 | 1038.6 |